Time,TemperatureF,DewpointF,PressureIn,WindDirection,WindDirectionDegrees,WindSpeedMPH,WindSpeedGustMPH,Humidity,HourlyPrecipIn,Conditions,Clouds,dailyrainin,SoftwareType,DateUTC
2013-03-10 00:00:00,37.1,32.7,30.31,NNE,19,7.0,7.0,84,0.00,,,0.00,Wunderground v.1.15,2013-03-10 05:00:00,
2013-03-10 00:10:00,37.2,32.8,30.31,NE,46,6.0,6.0,84,0.00,,,0.00,Wunderground v.1.15,2013-03-10 05:10:00,
2013-03-10 00:20:00,37.1,32.7,30.31,NNE,25,5.0,18.0,84,0.00,,,0.00,Wunderground v.1.15,2013-03-10 05:20:00,
2013-03-10 00:30:00,37.1,32.7,30.32,North,354,5.0,18.0,84,0.00,,,0.00,Wunderground v.1.15,2013-03-10 05:30:00,
2013-03-10 00:40:00,37.2,33.1,30.32,NE,46,4.0,4.0,85,0.00,,,0.00,Wunderground v.1.15,2013-03-10 05:40:00,
2013-03-10 00:50:00,37.3,32.9,30.33,NNE,26,5.0,5.0,84,0.00,,,0.00,Wunderground v.1.15,2013-03-10 05:50:00,
2013-03-10 01:00:00,37.4,33.0,30.33,NE,51,5.0,18.0,84,0.00,,,0.00,Wunderground v.1.15,2013-03-10 06:00:00,
2013-03-10 01:10:00,37.3,32.9,30.33,NNE,19,5.0,18.0,84,0.00,,,0.00,Wunderground v.1.15,2013-03-10 06:10:00,
2013-03-10 01:20:00,37.3,32.9,30.33,NE,40,4.0,4.0,84,0.00,,,0.00,Wunderground v.1.15,2013-03-10 06:20:00,
2013-03-10 01:30:00,37.4,33.0,30.33,NE,51,5.0,18.0,84,0.00,,,0.00,Wunderground v.1.15,2013-03-10 06:30:00,
2013-03-10 01:40:00,37.3,32.9,30.33,NE,49,5.0,18.0,84,0.00,,,0.00,Wunderground v.1.15,2013-03-10 06:40:00,
2013-03-10 01:50:00,37.4,32.7,30.33,NNE,13,7.0,7.0,83,0.00,,,0.00,Wunderground v.1.15,2013-03-10 06:50:00,
2013-03-10 03:00:00,37.4,33.0,30.33,North,9,5.0,18.0,84,0.00,,,0.00,Wunderground v.1.15,2013-03-10 07:00:00,
2013-03-10 03:10:00,37.3,32.6,30.33,NE,37,6.0,18.0,83,0.00,,,0.00,Wunderground v.1.15,2013-03-10 07:10:00,
2013-03-10 03:20:00,37.4,32.7,30.33,NE,36,6.0,6.0,83,0.00,,,0.00,Wunderground v.1.15,2013-03-10 07:20:00,
2013-03-10 03:30:00,37.3,32.9,30.33,NNE,23,4.0,18.0,84,0.00,,,0.00,Wunderground v.1.15,2013-03-10 07:30:00,
2013-03-10 03:40:00,37.3,33.2,30.33,NNE,26,4.0,4.0,85,0.00,,,0.00,Wunderground v.1.15,2013-03-10 07:40:00,
2013-03-10 03:50:00,37.2,32.5,30.33,North,360,4.0,4.0,83,0.00,,,0.00,Wunderground v.1.15,2013-03-10 07:50:00,
2013-03-10 04:00:00,37.1,32.4,30.33,NNW,347,6.0,6.0,83,0.00,,,0.00,Wunderground v.1.15,2013-03-10 08:00:00,
2013-03-10 04:10:00,37.2,32.2,30.33,NNE,32,7.0,18.0,82,0.00,,,0.00,Wunderground v.1.15,2013-03-10 08:10:00,
2013-03-10 04:20:00,37.1,32.4,30.33,NE,44,6.0,6.0,83,0.00,,,0.00,Wunderground v.1.15,2013-03-10 08:20:00,
2013-03-10 04:30:00,37.1,32.4,30.33,NNE,22,4.0,18.0,83,0.00,,,0.00,Wunderground v.1.15,2013-03-10 08:30:00,
2013-03-10 04:40:00,36.9,32.2,30.33,NNE,33,5.0,5.0,83,0.00,,,0.00,Wunderground v.1.15,2013-03-10 08:40:00,
2013-03-10 04:50:00,36.9,32.2,30.34,NE,40,6.0,6.0,83,0.00,,,0.00,Wunderground v.1.15,2013-03-10 08:50:00,
2013-03-10 05:00:00,36.9,32.2,30.34,NE,36,4.0,18.0,83,0.00,,,0.00,Wunderground v.1.15,2013-03-10 09:00:00,
2013-03-10 05:10:00,36.9,32.2,30.35,North,1,4.0,4.0,83,0.00,,,0.00,Wunderground v.1.15,2013-03-10 09:10:00,
2013-03-10 05:20:00,36.9,32.2,30.35,NNE,23,3.0,18.0,83,0.00,,,0.00,Wunderground v.1.15,2013-03-10 09:20:00,
2013-03-10 05:30:00,36.9,32.5,30.35,NE,46,4.0,4.0,84,0.00,,,0.00,Wunderground v.1.15,2013-03-10 09:30:00,
2013-03-10 05:40:00,36.9,32.2,30.35,NE,53,4.0,4.0,83,0.00,,,0.00,Wunderground v.1.15,2013-03-10 09:40:00,
2013-03-10 05:50:00,36.9,32.2,30.35,NNE,33,5.0,18.0,83,0.00,,,0.00,Wunderground v.1.15,2013-03-10 09:50:00,
2013-03-10 06:00:00,36.9,32.5,30.36,NE,38,5.0,18.0,84,0.00,,,0.00,Wunderground v.1.15,2013-03-10 10:00:00,
2013-03-10 06:10:00,36.9,32.5,30.36,NE,34,5.0,5.0,84,0.00,,,0.00,Wunderground v.1.15,2013-03-10 10:10:00,
2013-03-10 06:20:00,36.8,32.4,30.36,NNE,26,4.0,4.0,84,0.00,,,0.00,Wunderground v.1.15,2013-03-10 10:20:00,
2013-03-10 06:30:00,36.8,32.1,30.37,NNE,33,4.0,18.0,83,0.00,,,0.00,Wunderground v.1.15,2013-03-10 10:30:00,
2013-03-10 06:40:00,36.8,32.1,30.37,NE,44,5.0,5.0,83,0.00,,,0.00,Wunderground v.1.15,2013-03-10 10:40:00,
2013-03-10 06:50:00,36.7,32.0,30.36,NE,53,5.0,18.0,83,0.00,,,0.00,Wunderground v.1.15,2013-03-10 10:50:00,
2013-03-10 07:00:00,36.7,32.3,30.37,NE,43,4.0,18.0,84,0.00,,,0.00,Wunderground v.1.15,2013-03-10 11:00:00,
2013-03-10 07:10:00,36.6,31.9,30.37,NNE,30,5.0,18.0,83,0.00,,,0.00,Wunderground v.1.15,2013-03-10 11:10:00,
2013-03-10 07:20:00,36.7,32.0,30.37,ENE,57,5.0,18.0,83,0.00,,,0.00,Wunderground v.1.15,2013-03-10 11:20:00,
2013-03-10 07:30:00,36.8,32.1,30.37,NE,55,6.0,6.0,83,0.00,,,0.00,Wunderground v.1.15,2013-03-10 11:30:00,
2013-03-10 07:40:00,36.9,32.2,30.37,ENE,63,5.0,18.0,83,0.00,,,0.00,Wunderground v.1.15,2013-03-10 11:40:00,
2013-03-10 07:50:00,36.9,32.2,30.37,NNW,335,4.0,4.0,83,0.00,,,0.00,Wunderground v.1.15,2013-03-10 11:50:00,
2013-03-10 08:00:00,36.9,32.2,30.37,ENE,60,6.0,18.0,83,0.00,,,0.00,Wunderground v.1.15,2013-03-10 12:00:00,
2013-03-10 08:10:00,36.9,32.2,30.37,ENE,71,5.0,18.0,83,0.00,,,0.00,Wunderground v.1.15,2013-03-10 12:10:00,
2013-03-10 08:20:00,37.1,32.4,30.38,NE,46,5.0,5.0,83,0.00,,,0.00,Wunderground v.1.15,2013-03-10 12:20:00,
2013-03-10 08:30:00,37.3,32.6,30.38,NNE,19,4.0,18.0,83,0.00,,,0.00,Wunderground v.1.15,2013-03-10 12:30:00,
2013-03-10 08:40:00,37.2,32.2,30.38,NNW,332,4.0,4.0,82,0.00,,,0.00,Wunderground v.1.15,2013-03-10 12:40:00,
2013-03-10 08:50:00,37.3,32.6,30.38,NNE,30,4.0,18.0,83,0.00,,,0.00,Wunderground v.1.15,2013-03-10 12:50:00,
2013-03-10 09:00:00,37.5,32.8,30.38,ENE,68,4.0,18.0,83,0.00,,,0.00,Wunderground v.1.15,2013-03-10 13:00:00,
2013-03-10 09:10:00,37.6,32.9,30.39,NE,46,4.0,18.0,83,0.00,,,0.00,Wunderground v.1.15,2013-03-10 13:10:00,
2013-03-10 09:20:00,37.7,32.7,30.39,NE,46,5.0,18.0,82,0.00,,,0.00,Wunderground v.1.15,2013-03-10 13:20:00,
2013-03-10 09:30:00,37.7,33.0,30.39,NE,49,6.0,18.0,83,0.00,,,0.00,Wunderground v.1.15,2013-03-10 13:30:00,
2013-03-10 09:40:00,37.8,33.1,30.39,ENE,57,6.0,6.0,83,0.00,,,0.00,Wunderground v.1.15,2013-03-10 13:40:00,
2013-03-10 09:50:00,38.0,33.0,30.39,NNE,15,6.0,18.0,82,0.00,,,0.00,Wunderground v.1.15,2013-03-10 13:50:00,
2013-03-10 10:00:00,38.0,32.7,30.39,NE,51,6.0,6.0,81,0.00,,,0.00,Wunderground v.1.15,2013-03-10 14:00:00,
2013-03-10 10:10:00,38.0,32.4,30.39,NE,49,7.0,7.0,80,0.00,,,0.00,Wunderground v.1.15,2013-03-10 14:10:00,
2013-03-10 10:20:00,38.0,32.7,30.40,ENE,68,6.0,18.0,81,0.00,,,0.00,Wunderground v.1.15,2013-03-10 14:20:00,
2013-03-10 10:30:00,38.1,33.1,30.40,NNE,32,5.0,18.0,82,0.00,,,0.00,Wunderground v.1.15,2013-03-10 14:30:00,
2013-03-10 10:40:00,38.2,32.9,30.40,NNE,20,5.0,5.0,81,0.00,,,0.00,Wunderground v.1.15,2013-03-10 14:40:00,
2013-03-10 10:50:00,38.3,32.7,30.40,ENE,58,4.0,18.0,80,0.00,,,0.00,Wunderground v.1.15,2013-03-10 14:50:00,
2013-03-10 11:00:00,38.5,33.2,30.40,ENE,63,5.0,18.0,81,0.00,,,0.00,Wunderground v.1.15,2013-03-10 15:00:00,
2013-03-10 11:10:00,38.4,32.8,30.40,NE,55,5.0,5.0,80,0.00,,,0.00,Wunderground v.1.15,2013-03-10 15:10:00,
2013-03-10 11:20:00,38.4,32.8,30.40,NE,40,5.0,18.0,80,0.00,,,0.00,Wunderground v.1.15,2013-03-10 15:20:00,
2013-03-10 11:30:00,38.6,32.6,30.40,NE,49,5.0,18.0,79,0.00,,,0.00,Wunderground v.1.15,2013-03-10 15:30:00,
2013-03-10 11:40:00,38.4,32.5,30.40,NE,39,4.0,4.0,79,0.00,,,0.00,Wunderground v.1.15,2013-03-10 15:40:00,
2013-03-10 11:50:00,38.4,32.8,30.41,NNE,30,4.0,4.0,80,0.00,,,0.00,Wunderground v.1.15,2013-03-10 15:50:00,
2013-03-10 12:00:00,38.7,33.1,30.41,NE,51,3.0,18.0,80,0.00,,,0.00,Wunderground v.1.15,2013-03-10 16:00:00,
2013-03-10 12:10:00,38.3,33.0,30.41,ENE,63,5.0,5.0,81,0.00,,,0.00,Wunderground v.1.15,2013-03-10 16:10:00,
2013-03-10 12:20:00,38.4,32.8,30.41,NNE,24,4.0,18.0,80,0.00,,,0.00,Wunderground v.1.15,2013-03-10 16:20:00,
2013-03-10 12:30:00,38.2,32.9,30.41,North,352,4.0,18.0,81,0.00,,,0.00,Wunderground v.1.15,2013-03-10 16:30:00,
2013-03-10 12:40:00,38.5,32.9,30.40,NE,46,4.0,18.0,80,0.00,,,0.00,Wunderground v.1.15,2013-03-10 16:40:00,
2013-03-10 12:50:00,38.5,33.2,30.40,NE,40,4.0,18.0,81,0.00,,,0.00,Wunderground v.1.15,2013-03-10 16:50:00,
2013-03-10 13:00:00,38.3,32.4,30.40,NE,49,5.0,18.0,79,0.00,,,0.00,Wunderground v.1.15,2013-03-10 17:00:00,
2013-03-10 13:10:00,38.7,32.7,30.40,NE,52,4.0,18.0,79,0.00,,,0.00,Wunderground v.1.15,2013-03-10 17:10:00,
2013-03-10 13:20:00,38.8,33.2,30.40,NE,51,4.0,18.0,80,0.00,,,0.00,Wunderground v.1.15,2013-03-10 17:20:00,
2013-03-10 13:30:00,38.6,33.0,30.39,NNE,29,5.0,18.0,80,0.00,,,0.00,Wunderground v.1.15,2013-03-10 17:30:00,
2013-03-10 13:40:00,38.9,32.9,30.39,NNE,13,4.0,18.0,79,0.00,,,0.00,Wunderground v.1.15,2013-03-10 17:40:00,
2013-03-10 13:50:00,39.0,32.4,30.38,ENE,58,4.0,18.0,77,0.00,,,0.00,Wunderground v.1.15,2013-03-10 17:50:00,
2013-03-10 14:00:00,39.3,33.0,30.38,NE,55,4.0,18.0,78,0.00,,,0.00,Wunderground v.1.15,2013-03-10 18:00:00,
2013-03-10 14:10:00,38.7,32.4,30.38,ENE,67,5.0,5.0,78,0.00,,,0.00,Wunderground v.1.15,2013-03-10 18:10:00,
2013-03-10 14:20:00,38.6,32.6,30.38,NNE,29,6.0,6.0,79,0.00,,,0.00,Wunderground v.1.15,2013-03-10 18:20:00,
2013-03-10 14:30:00,39.5,33.5,30.38,North,356,3.0,18.0,79,0.00,,,0.00,Wunderground v.1.15,2013-03-10 18:30:00,
2013-03-10 14:40:00,39.2,33.2,30.37,NNW,343,4.0,18.0,79,0.00,,,0.00,Wunderground v.1.15,2013-03-10 18:40:00,
2013-03-10 14:50:00,39.5,33.8,30.37,ENE,60,4.0,18.0,80,0.00,,,0.00,Wunderground v.1.15,2013-03-10 18:50:00,
2013-03-10 15:00:00,38.7,33.1,30.37,NE,46,5.0,5.0,80,0.00,,,0.00,Wunderground v.1.15,2013-03-10 19:00:00,
2013-03-10 15:10:00,39.3,33.3,30.37,NNE,32,4.0,4.0,79,0.00,,,0.00,Wunderground v.1.15,2013-03-10 19:10:00,
2013-03-10 15:20:00,38.9,32.6,30.37,NE,44,5.0,18.0,78,0.00,,,0.00,Wunderground v.1.15,2013-03-10 19:20:00,
2013-03-10 15:30:00,38.8,33.2,30.37,NE,47,5.0,18.0,80,0.00,,,0.00,Wunderground v.1.15,2013-03-10 19:30:00,
2013-03-10 15:40:00,38.9,32.6,30.37,NE,44,5.0,18.0,78,0.00,,,0.00,Wunderground v.1.15,2013-03-10 19:40:00,
2013-03-10 15:50:00,38.5,32.6,30.36,ENE,61,5.0,5.0,79,0.00,,,0.00,Wunderground v.1.15,2013-03-10 19:50:00,
2013-03-10 16:00:00,38.7,33.1,30.36,NE,53,5.0,18.0,80,0.00,,,0.00,Wunderground v.1.15,2013-03-10 20:00:00,
2013-03-10 16:10:00,38.8,32.5,30.36,NE,46,5.0,5.0,78,0.00,,,0.00,Wunderground v.1.15,2013-03-10 20:10:00,
2013-03-10 16:20:00,39.0,33.0,30.36,NNE,19,5.0,5.0,79,0.00,,,0.00,Wunderground v.1.15,2013-03-10 20:20:00,
2013-03-10 16:30:00,38.5,32.6,30.36,ENE,65,5.0,5.0,79,0.00,,,0.00,Wunderground v.1.15,2013-03-10 20:30:00,
2013-03-10 16:40:00,38.1,32.5,30.36,NE,46,4.0,18.0,80,0.00,,,0.00,Wunderground v.1.15,2013-03-10 20:40:00,
2013-03-10 16:50:00,37.6,32.0,30.36,NNE,12,4.0,4.0,80,0.00,,,0.00,Wunderground v.1.15,2013-03-10 20:50:00,
2013-03-10 17:00:00,37.8,32.2,30.36,ENE,60,3.0,3.0,80,0.00,,,0.00,Wunderground v.1.15,2013-03-10 21:00:00,
2013-03-10 17:10:00,38.5,32.9,30.36,NE,56,3.0,18.0,80,0.00,,,0.00,Wunderground v.1.15,2013-03-10 21:10:00,
2013-03-10 17:20:00,37.6,32.0,30.36,NE,54,5.0,5.0,80,0.00,,,0.00,Wunderground v.1.15,2013-03-10 21:20:00,
2013-03-10 17:30:00,37.6,32.3,30.36,ENE,75,3.0,18.0,81,0.00,,,0.00,Wunderground v.1.15,2013-03-10 21:30:00,
2013-03-10 17:40:00,37.1,31.8,30.36,ENE,72,4.0,4.0,81,0.00,,,0.00,Wunderground v.1.15,2013-03-10 21:40:00,
2013-03-10 17:50:00,36.9,31.9,30.36,East,81,3.0,18.0,82,0.00,,,0.00,Wunderground v.1.15,2013-03-10 21:50:00,
2013-03-10 18:00:00,36.8,31.8,30.36,NE,56,4.0,4.0,82,0.00,,,0.00,Wunderground v.1.15,2013-03-10 22:00:00,
2013-03-10 18:10:00,36.7,31.7,30.36,ENE,57,3.0,3.0,82,0.00,,,0.00,Wunderground v.1.15,2013-03-10 22:10:00,
2013-03-10 18:20:00,36.6,31.9,30.37,ENE,58,3.0,18.0,83,0.00,,,0.00,Wunderground v.1.15,2013-03-10 22:20:00,
2013-03-10 18:30:00,36.5,31.8,30.36,NE,51,3.0,18.0,83,0.00,,,0.00,Wunderground v.1.15,2013-03-10 22:30:00,
2013-03-10 18:40:00,36.5,32.1,30.36,NE,43,2.0,2.0,84,0.00,,,0.00,Wunderground v.1.15,2013-03-10 22:40:00,
2013-03-10 18:50:00,36.6,32.2,30.37,ENE,65,1.0,18.0,84,0.00,,,0.00,Wunderground v.1.15,2013-03-10 22:50:00,
2013-03-10 19:00:00,36.6,32.2,30.36,NE,51,2.0,18.0,84,0.00,,,0.00,Wunderground v.1.15,2013-03-10 23:00:00,
2013-03-10 19:10:00,36.4,32.3,30.36,NNE,19,3.0,3.0,85,0.00,,,0.00,Wunderground v.1.15,2013-03-10 23:10:00,
2013-03-10 19:20:00,36.4,32.3,30.36,ENE,70,3.0,18.0,85,0.00,,,0.00,Wunderground v.1.15,2013-03-10 23:20:00,
2013-03-10 19:30:00,36.3,32.2,30.37,ENE,67,2.0,18.0,85,0.00,,,0.00,Wunderground v.1.15,2013-03-10 23:30:00,
2013-03-10 19:40:00,36.3,32.2,30.37,ENE,64,1.0,18.0,85,0.00,,,0.00,Wunderground v.1.15,2013-03-10 23:40:00,
2013-03-10 19:50:00,36.3,32.2,30.37,ESE,113,1.0,18.0,85,0.00,,,0.00,Wunderground v.1.15,2013-03-10 23:50:00,
2013-03-10 20:00:00,36.3,32.2,30.38,ENE,71,1.0,18.0,85,0.00,,,0.00,Wunderground v.1.15,2013-03-11 00:00:00,
2013-03-10 20:10:00,36.2,32.1,30.38,East,94,1.0,1.0,85,0.00,,,0.00,Wunderground v.1.15,2013-03-11 00:10:00,
2013-03-10 20:20:00,36.2,32.1,30.38,East,95,0.0,18.0,85,0.00,,,0.00,Wunderground v.1.15,2013-03-11 00:20:00,
2013-03-10 20:30:00,36.1,32.0,30.38,East,94,0.0,18.0,85,0.00,,,0.00,Wunderground v.1.15,2013-03-11 00:30:00,
2013-03-10 20:40:00,36.1,32.0,30.38,ENE,63,1.0,18.0,85,0.00,,,0.00,Wunderground v.1.15,2013-03-11 00:40:00,
2013-03-10 20:50:00,36.0,31.9,30.38,East,91,3.0,3.0,85,0.00,,,0.00,Wunderground v.1.15,2013-03-11 00:50:00,
2013-03-10 21:00:00,35.9,32.1,30.38,East,97,2.0,18.0,86,0.00,,,0.00,Wunderground v.1.15,2013-03-11 01:00:00,
2013-03-10 21:10:00,35.7,31.6,30.38,NE,50,3.0,18.0,85,0.00,,,0.00,Wunderground v.1.15,2013-03-11 01:10:00,
2013-03-10 21:20:00,35.6,31.8,30.37,East,81,2.0,18.0,86,0.00,,,0.00,Wunderground v.1.15,2013-03-11 01:20:00,
2013-03-10 21:30:00,35.6,31.8,30.38,ESE,107,2.0,18.0,86,0.00,,,0.00,Wunderground v.1.15,2013-03-11 01:30:00,
2013-03-10 21:40:00,35.5,31.7,30.37,ESE,103,3.0,3.0,86,0.00,,,0.00,Wunderground v.1.15,2013-03-11 01:40:00,
2013-03-10 21:50:00,35.4,31.6,30.37,East,86,2.0,18.0,86,0.00,,,0.00,Wunderground v.1.15,2013-03-11 01:50:00,
2013-03-10 22:00:00,35.3,31.5,30.37,East,99,3.0,3.0,86,0.00,,,0.00,Wunderground v.1.15,2013-03-11 02:00:00,
2013-03-10 22:10:00,35.2,31.7,30.37,SE,130,2.0,18.0,87,0.00,,,0.00,Wunderground v.1.15,2013-03-11 02:10:00,
2013-03-10 22:20:00,35.2,31.4,30.38,ESE,120,3.0,3.0,86,0.00,,,0.00,Wunderground v.1.15,2013-03-11 02:20:00,
2013-03-10 22:30:00,35.1,31.3,30.37,ESE,103,2.0,18.0,86,0.00,,,0.00,Wunderground v.1.15,2013-03-11 02:30:00,
2013-03-10 22:40:00,35.2,31.7,30.37,ESE,118,2.0,2.0,87,0.00,,,0.00,Wunderground v.1.15,2013-03-11 02:40:00,
2013-03-10 22:50:00,35.3,31.8,30.36,East,87,2.0,18.0,87,0.00,,,0.00,Wunderground v.1.15,2013-03-11 02:50:00,
2013-03-10 23:00:00,35.3,31.8,30.36,ESE,120,4.0,18.0,87,0.00,,,0.00,Wunderground v.1.15,2013-03-11 03:00:00,
2013-03-10 23:10:00,35.4,31.9,30.36,East,96,5.0,5.0,87,0.00,,,0.00,Wunderground v.1.15,2013-03-11 03:10:00,
2013-03-10 23:20:00,35.4,31.9,30.36,East,94,4.0,4.0,87,0.00,,,0.00,Wunderground v.1.15,2013-03-11 03:20:00,
2013-03-10 23:30:00,35.5,32.0,30.37,ESE,110,3.0,3.0,87,0.00,,,0.00,Wunderground v.1.15,2013-03-11 03:30:00,
2013-03-10 23:40:00,35.5,32.0,30.37,SE,136,2.0,2.0,87,0.00,,,0.00,Wunderground v.1.15,2013-03-11 03:40:00,
2013-03-10 23:50:00,35.5,32.0,30.37,SSE,149,2.0,18.0,87,0.00,,,0.00,Wunderground v.1.15,2013-03-11 03:50:00,